Waarnemingen

Advertentie
Mijn weer
St. Mary's, Groot Brittannië (3803): temperatuur & dauwpunt: 12.12.2017 12:00:00 - 18.12.2017 12:00:00 (GMT)St. Mary's, Groot Brittannië (3803): temperatuur -20cm: 12.12.2017 12:00:00 - 18.12.2017 12:00:00 (GMT)St. Mary's, Groot Brittannië (3803): windsnelheid & windstoten: 12.12.2017 12:00:00 - 18.12.2017 12:00:00 (GMT)St. Mary's, Groot Brittannië (3803): windrichting: 12.12.2017 12:00:00 - 18.12.2017 12:00:00 (GMT)St. Mary's, Groot Brittannië (3803): luchtdruk: 12.12.2017 12:00:00 - 18.12.2017 12:00:00 (GMT)St. Mary's, Groot Brittannië (3803): zicht: 12.12.2017 12:00:00 - 18.12.2017 12:00:00 (GMT)St. Mary's, Groot Brittannië (3803): neerslag: 12.12.2017 12:00:00 - 18.12.2017 12:00:00 (GMT)
Datum & Tijd tt [°C] td [°C] tt -20cm [°C] ff [km/u] ff [kn] fx [km/u] fx [kn] dd ppp [hPa] vv [km] rr [mm]
18.12.2017 12:00:00 11,3 9,1 - 11 6 - - O 1031,5 10 0,0
18.12.2017 11:00:00 10,6 10,0 - 15 8 - - O 1031,2 10 0,0
18.12.2017 10:00:00 10,1 10,0 - 11 6 - - ONO 1030,5 10 0,0
18.12.2017 09:00:00 9,6 9,5 9,0 5 3 - - NNO 1029,6 10 0,0
18.12.2017 08:00:00 10,0 10,0 - 8 4 - - N 1029,2 10 0,0
18.12.2017 07:00:00 10,1 10,1 - 11 6 - - NNW 1028,5 35 0,0
18.12.2017 06:00:00 10,0 10,0 - 13 7 - - NW 1027,7 9 0,0
18.12.2017 05:00:00 10,0 10,0 - 13 7 - - NW 1027,4 13 0,0
18.12.2017 04:00:00 10,5 10,5 - 16 9 - - NW 1027,3 14 0,0
18.12.2017 03:00:00 10,6 10,6 - 21 11 - - NW 1026,9 5 0,0
18.12.2017 02:00:00 10,6 10,6 - 18 10 - - NW 1026,6 0,8 0,2
18.12.2017 01:00:00 10,4 10,4 - 18 10 - - WNW 1026,3 1,2 0,0
18.12.2017 00:00:00 10,4 10,4 - 18 10 - - W 1025,7 0,3 0,0
17.12.2017 23:00:00 10,7 10,7 - 22 12 - - WNW 1025,6 0,3 0,0
17.12.2017 22:00:00 11,1 11,0 - 21 11 - - W 1025,2 1,1 0,0
17.12.2017 21:00:00 11,2 11,1 - 22 12 - - W 1025,6 0,7 0,0
17.12.2017 20:00:00 11,4 11,3 - 26 14 - - W 1025,3 1,2 0,0
17.12.2017 19:00:00 11,3 11,1 - 34 18 55 30 WZW 1024,6 3,0 0,0
17.12.2017 18:00:00 11,1 10,9 - 41 22 54 29 ZW 1023,1 5 0,0
17.12.2017 17:00:00 11,0 10,7 - 41 22 54 29 ZW 1023,8 3,8 0,0
17.12.2017 16:00:00 11,0 10,3 - 35 19 48 26 WZW 1024,5 5 0,0
17.12.2017 15:00:00 11,1 9,9 - 34 18 48 26 WZW 1024,6 11 0,0
17.12.2017 14:00:00 11,5 9,4 - 34 18 - - ZW 1025,0 20 0,2
17.12.2017 13:00:00 11,3 9,0 - 31 17 - - ZW 1025,8 11 0,0
17.12.2017 12:00:00 11,4 8,9 - 34 18 48 26 WZW 1026,3 30 0,0
17.12.2017 11:00:00 11,2 8,6 - 29 16 - - ZW 1026,4 23 0,0
17.12.2017 10:00:00 10,8 8,5 - 34 18 - - ZW 1025,3 35 0,0
17.12.2017 09:00:00 10,8 8,3 7,9 26 14 - - ZW 1026,2 30 0,0
17.12.2017 08:00:00 10,7 8,0 - 26 14 - - WZW 1026,2 30 0,0
17.12.2017 07:00:00 10,6 7,6 - 22 12 - - WZW 1026,3 30 0,0
17.12.2017 06:00:00 10,4 7,5 - 26 14 - - W 1026,6 30 0,0
17.12.2017 05:00:00 10,2 6,8 - 24 13 - - W 1026,8 45 0,0
17.12.2017 04:00:00 10,0 6,3 - 24 13 - - W 1026,9 45 0,0
17.12.2017 03:00:00 9,5 6,1 - 21 11 - - W 1027,2 35 0,0
17.12.2017 02:00:00 9,7 6,0 - 18 10 - - W 1027,2 50 0,0
17.12.2017 01:00:00 9,7 5,7 - 21 11 - - W 1027,2 50 0,0
17.12.2017 00:00:00 9,6 5,4 - 22 12 - - WNW 1027,3 50 -
16.12.2017 23:00:00 9,7 5,5 - 21 11 - - WNW 1027,2 40 0,0
16.12.2017 22:00:00 9,9 5,6 - 24 13 - - WNW 1026,9 45 0,0
16.12.2017 21:00:00 9,9 5,2 - 28 15 - - WNW 1026,9 35 0,0
16.12.2017 20:00:00 9,9 4,9 - 28 15 - - WNW 1027,0 50 0,0
16.12.2017 19:00:00 9,8 5,2 - 24 13 - - WNW 1026,6 40 0,0
16.12.2017 18:00:00 9,7 5,3 - 29 16 - - WNW 1026,4 35 0,0
16.12.2017 17:00:00 9,5 5,1 - 29 16 - - WNW 1025,9 40 0,0
16.12.2017 16:00:00 9,2 4,6 - 28 15 - - WNW 1025,5 50 0,0
16.12.2017 15:00:00 9,0 4,0 - 26 14 - - WNW 1025,0 50 0,0
16.12.2017 14:00:00 8,7 3,0 - 24 13 - - WNW 1025,0 30 0,0
16.12.2017 13:00:00 8,7 2,4 - 22 12 - - NW 1025,3 45 0,0
16.12.2017 12:00:00 8,6 2,3 - 18 10 - - NW 1025,1 10 0,0
16.12.2017 11:00:00 8,1 1,9 - 18 10 - - NNW 1025,1 10 0,0
16.12.2017 10:00:00 7,6 1,3 - 18 10 - - NNW 1024,5 10 0,0
16.12.2017 09:00:00 7,0 1,2 7,7 21 11 - - NNW 1023,8 10 0,0
16.12.2017 08:00:00 7,3 2,1 - 13 7 - - N 1023,2 10 0,0
16.12.2017 07:00:00 6,6 3,3 - 28 15 - - N 1022,6 45 0,0
16.12.2017 06:00:00 6,2 3,3 - 22 12 - - N 1021,8 35 0,4
16.12.2017 05:00:00 7,3 3,2 - 24 13 - - N 1021,1 45 0,0
16.12.2017 04:00:00 6,2 2,9 - 29 16 52 28 N 1020,6 24 0,2
16.12.2017 03:00:00 7,7 2,5 - 24 13 - - NNW 1020,1 35 0,0
16.12.2017 02:00:00 7,9 2,1 - 24 13 - - N 1019,4 35 0,0
16.12.2017 01:00:00 7,8 1,7 - 28 15 - - N 1019,1 45 0,0
16.12.2017 00:00:00 7,8 2,1 - 28 15 46 25 N 1018,4 40 0,0
15.12.2017 23:00:00 8,0 1,9 - 28 15 - - N 1018,0 45 0,0
15.12.2017 22:00:00 7,9 1,8 - 29 16 46 25 N 1017,3 45 0,0
15.12.2017 21:00:00 8,1 2,2 - 31 17 48 26 N 1016,6 30 0,0
15.12.2017 20:00:00 8,1 1,4 - 35 19 50 27 N 1015,8 45 0,0
15.12.2017 19:00:00 8,1 2,7 - 35 19 52 28 NNW 1014,9 29 0,0
15.12.2017 18:00:00 8,4 3,2 - 37 20 54 29 NNW 1013,9 28 0,0
15.12.2017 17:00:00 8,4 3,7 - 31 17 55 30 N 1012,8 10 0,0
15.12.2017 16:00:00 8,7 4,1 - 37 20 57 31 N 1011,6 10 0,0
15.12.2017 15:00:00 8,6 3,9 - 39 21 63 34 NNW 1010,6 19 0,0
15.12.2017 14:00:00 8,7 3,3 - 42 23 67 36 N 1009,6 10 0,0
15.12.2017 13:00:00 9,0 4,4 - 46 25 68 37 NNW 1008,9 10 0,0
15.12.2017 12:00:00 8,6 4,6 - 50 27 68 37 NNW 1008,3 10 0,8
15.12.2017 11:00:00 7,6 5,7 - 37 20 67 36 NNW 1008,0 10 0,6
15.12.2017 10:00:00 8,2 4,9 - 37 20 68 37 NNW 1007,2 10 0,2
15.12.2017 09:00:00 7,5 5,0 8,0 39 21 65 35 NNW 1005,7 10 0,6
15.12.2017 08:00:00 7,9 4,6 - 52 28 70 38 NNW 1004,6 10 0,0
15.12.2017 07:00:00 8,7 4,3 - 52 28 70 38 NNW 1003,8 18 0,0
15.12.2017 06:00:00 9,1 3,5 - 55 30 76 41 NNW 1002,8 21 0,0
15.12.2017 05:00:00 9,0 4,1 - 48 26 70 38 NW 1002,0 21 0,0
15.12.2017 04:00:00 8,8 4,7 - 44 24 63 34 NNW 1001,1 30 0,0
15.12.2017 03:00:00 8,6 5,1 - 42 23 57 31 NNW 1000,2 25 0,2
15.12.2017 02:00:00 8,7 5,8 - 37 20 63 34 W 999,5 10 0,2
15.12.2017 01:00:00 9,1 5,0 - 41 22 80 43 WNW 999,6 13 0,2
15.12.2017 00:00:00 8,9 3,8 - 41 22 65 35 WNW 999,8 17 0,0
14.12.2017 23:00:00 8,7 3,1 - 44 24 63 34 WNW 999,4 23 0,0
14.12.2017 22:00:00 8,4 3,7 - 46 25 63 34 WNW 998,9 22 0,0
14.12.2017 21:00:00 8,7 3,3 - 44 24 70 38 NW 998,6 19 0,0
14.12.2017 20:00:00 9,1 2,4 - 50 27 78 42 NW 997,8 21 0,0
14.12.2017 19:00:00 9,0 4,0 - 54 29 78 42 WNW 996,8 18 0,0
14.12.2017 18:00:00 8,9 3,8 - 59 32 80 43 NW 995,8 19 0,0
14.12.2017 17:00:00 8,3 4,4 - 57 31 85 46 WNW 994,7 10 0,0
14.12.2017 16:00:00 8,4 4,2 - 50 27 78 42 W 995,2 10 0,0
14.12.2017 15:00:00 6,9 3,5 - 59 32 94 51 WNW 995,7 10 0,0
14.12.2017 14:00:00 8,5 3,0 - 54 29 76 41 WNW 995,8 10 0,2
14.12.2017 13:00:00 7,2 2,2 - 50 27 70 38 W 996,5 10 0,0
14.12.2017 12:00:00 6,4 4,0 - 37 20 85 46 W 997,8 10 0,6
14.12.2017 11:00:00 7,2 4,7 - 44 24 80 43 WNW 998,7 10 0,4
14.12.2017 10:00:00 7,7 4,5 - 41 22 81 44 W 998,8 10 0,2
14.12.2017 09:00:00 6,8 4,0 8,2 52 28 72 39 W 999,3 10 0,0
14.12.2017 08:00:00 6,4 4,7 - 44 24 67 36 W 999,9 10 0,4
14.12.2017 07:00:00 7,1 4,2 - 44 24 81 44 W 1000,3 6 0,0
14.12.2017 06:00:00 8,0 3,7 - 55 30 78 42 W 1000,9 17 0,2
14.12.2017 05:00:00 6,3 4,0 - 50 27 96 52 W 1001,5 20 0,6
14.12.2017 04:00:00 7,5 3,7 - 41 22 80 43 W 1002,0 21 0,0
14.12.2017 03:00:00 7,0 4,6 - 50 27 78 42 WNW 1002,8 15 0,2
14.12.2017 02:00:00 6,7 3,8 - 50 27 74 40 W 1003,4 9 0,2
14.12.2017 01:00:00 8,0 2,5 - 52 28 96 52 W 1003,4 18 0,0
14.12.2017 00:00:00 8,6 1,4 - 48 26 76 41 W 1003,7 17 0,0
13.12.2017 23:00:00 8,0 1,8 - 44 24 74 40 W 1003,7 21 0,0
13.12.2017 22:00:00 7,9 1,8 - 54 29 78 42 WNW 1003,5 18 0,0
13.12.2017 21:00:00 8,0 2,1 - 57 31 85 46 WNW 1003,0 15 0,0
13.12.2017 20:00:00 8,0 2,5 - 59 32 89 48 NW 1002,0 14 0,0
13.12.2017 19:00:00 7,4 4,8 - 57 31 100 54 WNW 1001,3 12 1,2
13.12.2017 18:00:00 8,1 6,0 - 50 27 100 54 W 1000,0 11 0,6
13.12.2017 17:00:00 10,2 4,8 - 55 30 80 43 W 999,9 10 0,0
13.12.2017 16:00:00 9,6 5,1 - 48 26 72 39 W 1000,7 10 0,0
13.12.2017 15:00:00 8,9 5,3 - 50 27 78 42 WNW 1000,9 10 0,2
13.12.2017 14:00:00 10,1 6,9 - 42 23 76 41 W 1000,7 10 0,2
13.12.2017 13:00:00 10,3 7,4 - 42 23 65 35 W 1001,1 10 0,2
13.12.2017 12:00:00 11,3 9,4 - 42 23 63 34 W 1001,2 10 0,0
13.12.2017 11:00:00 11,0 9,8 - 41 22 57 31 W 1001,8 10 0,0
13.12.2017 10:00:00 10,5 10,0 - 37 20 57 31 WZW 1002,3 10 0,4
13.12.2017 09:00:00 9,8 9,3 8,4 35 19 55 30 WZW 1003,1 2,5 0,2
13.12.2017 08:00:00 9,6 8,9 - 35 19 65 35 WZW 1003,9 9 0,2
13.12.2017 07:00:00 10,7 7,7 - 37 20 59 32 WZW 1004,7 12 0,0
13.12.2017 06:00:00 10,7 7,7 - 37 20 55 30 WZW 1005,4 13 0,0
13.12.2017 05:00:00 10,9 8,3 - 39 21 59 32 WZW 1006,1 10 0,0
13.12.2017 04:00:00 10,6 8,2 - 37 20 52 28 W 1006,6 12 0,0
13.12.2017 03:00:00 10,3 7,3 - 34 18 48 26 W 1007,2 18 0,0
13.12.2017 02:00:00 9,7 6,4 - 26 14 48 26 W 1007,6 24 0,0
13.12.2017 01:00:00 10,3 6,8 - 31 17 48 26 WNW 1008,1 13 0,0
13.12.2017 00:00:00 10,4 7,0 - 29 16 46 25 WNW 1007,7 12 0,0
12.12.2017 23:00:00 10,4 7,1 - 34 18 - - WNW 1007,6 11 0,0
12.12.2017 22:00:00 10,3 7,3 - 31 17 50 27 WNW 1006,6 11 0,0
12.12.2017 21:00:00 10,3 8,2 - 35 19 65 35 NW 1006,4 9 0,0
12.12.2017 20:00:00 10,6 10,0 - 44 24 67 36 ZW 1006,0 6 0,2
12.12.2017 19:00:00 10,0 9,5 - 54 29 67 36 ZW 1006,5 3,8 0,2
12.12.2017 18:00:00 9,5 8,5 - 52 28 67 36 ZW 1007,4 7 0,0
12.12.2017 17:00:00 9,2 7,1 - 46 25 67 36 ZZW 1007,9 10 0,0
12.12.2017 16:00:00 9,4 5,9 - 48 26 61 33 ZZW 1007,3 10 0,0
12.12.2017 15:00:00 9,2 4,7 - 39 21 52 28 ZW 1008,8 10 0,0
12.12.2017 14:00:00 8,6 5,6 - 29 16 54 29 ZW 1009,4 10 0,2
12.12.2017 13:00:00 9,3 5,5 - 29 16 55 30 WZW 1009,9 10 0,0
12.12.2017 12:00:00 9,0 3,2 - 29 16 - - WZW 1010,5 10 0,0

tt = temperatuur
td = dauwpunt
tt -20cm = temperatuur -20cm
ff = windsnelheid
fx = windstoten
dd = windrichting
ppp = luchtdruk
vv = zicht
rr = neerslag

Weerstations in de omgeving